Weather in Eretria

Greece     38°23′38″N   23°47′43″E
temp.,
°C
wind,
m/s
gust,
m/s
humid.,
%
clouds,
%
prec.,
mm/h
press.,
hPa
HPBL,
m
23 january, sat
sat2323:00+8se22910 0.0 102026
02:00+7se229211 0.0 101929
05:00+7se239277 0.0 101832
08:00+8se339189 0.0 101745
11:00+13s61073100 0.0 10161056
14:00+13s9126491 0.1 10141437
17:00+11sse6127397 0.0 1012827
20:00+10s7157797 0.0 1011812
24 january, sun
sun2423:00+11s7148197 0.3 1011961
02:00+10s4108978 2.2 1010302
05:00+8s228914 0.2 100928
08:00+8s238517 0.2 101052
11:00+13ssw5867100 0.0 1011713
14:00+14ssw71061100 0.0 10101279
17:00+12s51270100 0.0 1009598
20:00+11s61272100 0.0 1009482
25 january, mon
mon2523:00+10sse51078100 0.0 1007294
02:00+11sse6147767 0.0 1005638
05:00+11ssw61381100 0.5 1003800
08:00+9sw398250 0.6 1005586
11:00+13wsw917540 0.0 10071631
14:00+14wsw9145017 0.0 10071586
17:00+12sw51162100 0.0 1008499
20:00+10sw41165100 0.0 1009362
26 january, tue
tue2623:00+9sw3473100 0.0 1009126
02:00+9ssw4871100 0.0 1010185
05:00+6wsw127462 0.0 101127
08:00+6sw007349 0.0 101322
11:00+10nw1259100 0.0 1014629
14:00+11nnw2257100 0.1 10131246
17:00+9nne3576100 0.2 1013286
20:00+7nne2381100 0.7 1013195
27 january, wed
wed2723:00+7n3378100 0.1 101499
02:00+6nnw4871100 0.1 1013303
05:00+5nnw488134 0.1 1012246
08:00+5nnw699244 1.5 1013615
11:00+4n3695100 11.9 1014443
14:00+4n2492100 16.4 1013300
17:00+6nne247517 0.3 1013203
20:00+3n34638 0.3 101541